����������;��������(kVARh)
2015-07-27 00:00;1,8
2015-07-27 00:15;0
2015-07-27 00:30;0
2015-07-27 00:45;0
2015-07-27 01:00;0
2015-07-27 01:15;0
2015-07-27 01:30;0
2015-07-27 01:45;0
2015-07-27 02:00;0
2015-07-27 02:15;0
2015-07-27 02:30;0
2015-07-27 02:45;0
2015-07-27 03:00;0
2015-07-27 03:15;0
2015-07-27 03:30;0
2015-07-27 03:45;0
2015-07-27 04:00;0
2015-07-27 04:15;0
2015-07-27 04:30;0
2015-07-27 04:45;0
2015-07-27 05:00;0
2015-07-27 05:15;0
2015-07-27 05:30;0
2015-07-27 05:45;0
2015-07-27 06:00;0
2015-07-27 06:15;0
2015-07-27 06:30;0
2015-07-27 06:45;0,25
2015-07-27 07:00;0
2015-07-27 07:15;0
2015-07-27 07:30;0
2015-07-27 07:45;15,1
2015-07-27 08:00;39,15
2015-07-27 08:15;34,95
2015-07-27 08:30;27,65
2015-07-27 08:45;17,2
2015-07-27 09:00;32,6
2015-07-27 09:15;21,1
2015-07-27 09:30;33,3
2015-07-27 09:45;43,15
2015-07-27 10:00;43,55
2015-07-27 10:15;41,55
2015-07-27 10:30;38,85
2015-07-27 10:45;46,95
2015-07-27 11:00;49,5
2015-07-27 11:15;52,15
2015-07-27 11:30;51,25
2015-07-27 11:45;51,7
2015-07-27 12:00;59,5
2015-07-27 12:15;64,7
2015-07-27 12:30;53,7
2015-07-27 12:45;45,2
2015-07-27 13:00;44,25
2015-07-27 13:15;53,6
2015-07-27 13:30;51,65
2015-07-27 13:45;54,35
2015-07-27 14:00;52,1
2015-07-27 14:15;52,4
2015-07-27 14:30;50,65
2015-07-27 14:45;50,5
2015-07-27 15:00;51,4
2015-07-27 15:15;53,9
2015-07-27 15:30;44,55
2015-07-27 15:45;38,25
2015-07-27 16:00;39,6
2015-07-27 16:15;45,15
2015-07-27 16:30;34,5
2015-07-27 16:45;30,65
2015-07-27 17:00;30,65
2015-07-27 17:15;29,25
2015-07-27 17:30;25,65
2015-07-27 17:45;22,75
2015-07-27 18:00;22,15
2015-07-27 18:15;19,8
2015-07-27 18:30;10,5
2015-07-27 18:45;2,8
2015-07-27 19:00;3,2
2015-07-27 19:15;8,6
2015-07-27 19:30;6,8
2015-07-27 19:45;1,6
2015-07-27 20:00;1,45
2015-07-27 20:15;3,4
2015-07-27 20:30;1,3
2015-07-27 20:45;0
2015-07-27 21:00;0
2015-07-27 21:15;0
2015-07-27 21:30;0
2015-07-27 21:45;0
2015-07-27 22:00;0
2015-07-27 22:15;0
2015-07-27 22:30;0,05
2015-07-27 22:45;0,05
2015-07-27 23:00;0,1
2015-07-27 23:15;3,15
2015-07-27 23:30;1,8
2015-07-27 23:45;9
2015-07-28 00:00;1,05
2015-07-28 00:15;0,15
2015-07-28 00:30;0
2015-07-28 00:45;0
2015-07-28 01:00;0
2015-07-28 01:15;0
2015-07-28 01:30;0
2015-07-28 01:45;0
2015-07-28 02:00;0
2015-07-28 02:15;0
2015-07-28 02:30;0
2015-07-28 02:45;0
2015-07-28 03:00;0
2015-07-28 03:15;0
2015-07-28 03:30;0
2015-07-28 03:45;0
2015-07-28 04:00;0,3
2015-07-28 04:15;0
2015-07-28 04:30;0,2
2015-07-28 04:45;0
2015-07-28 05:00;0,35
2015-07-28 05:15;0,35
2015-07-28 05:30;1,05
2015-07-28 05:45;0,45
2015-07-28 06:00;0
2015-07-28 06:15;0,4
2015-07-28 06:30;0
2015-07-28 06:45;0
2015-07-28 07:00;0
2015-07-28 07:15;0
2015-07-28 07:30;0,1
2015-07-28 07:45;21
2015-07-28 08:00;35,65
2015-07-28 08:15;36,45
2015-07-28 08:30;33,05
2015-07-28 08:45;22,6
2015-07-28 09:00;35,55
2015-07-28 09:15;30,95
2015-07-28 09:30;31,7
2015-07-28 09:45;46,05
2015-07-28 10:00;44,05
2015-07-28 10:15;44
2015-07-28 10:30;47,7
2015-07-28 10:45;47,4
2015-07-28 11:00;47,1
2015-07-28 11:15;47,35
2015-07-28 11:30;49,05
2015-07-28 11:45;58,15
2015-07-28 12:00;55,2
2015-07-28 12:15;50,3
2015-07-28 12:30;59,8
2015-07-28 12:45;51,55
2015-07-28 13:00;47,25
2015-07-28 13:15;54
2015-07-28 13:30;54,25
2015-07-28 13:45;50,85
2015-07-28 14:00;51,3
2015-07-28 14:15;53,8
2015-07-28 14:30;53,6
2015-07-28 14:45;47
2015-07-28 15:00;44,75
2015-07-28 15:15;50,35
2015-07-28 15:30;33,85
2015-07-28 15:45;30,15
2015-07-28 16:00;27,25
2015-07-28 16:15;28,6
2015-07-28 16:30;21,35
2015-07-28 16:45;20
2015-07-28 17:00;25,55
2015-07-28 17:15;28,4
2015-07-28 17:30;22,05
2015-07-28 17:45;19,45
2015-07-28 18:00;20,85
2015-07-28 18:15;21,3
2015-07-28 18:30;12,2
2015-07-28 18:45;6,5
2015-07-28 19:00;4,9
2015-07-28 19:15;8
2015-07-28 19:30;3,8
2015-07-28 19:45;5,2
2015-07-28 20:00;4,85
2015-07-28 20:15;6,95
2015-07-28 20:30;6,45
2015-07-28 20:45;0,1
2015-07-28 21:00;0,05
2015-07-28 21:15;0,25
2015-07-28 21:30;0,05
2015-07-28 21:45;0
2015-07-28 22:00;0
2015-07-28 22:15;0,55
2015-07-28 22:30;0
2015-07-28 22:45;0,2
2015-07-28 23:00;0,05
2015-07-28 23:15;6,45
2015-07-28 23:30;3,35
2015-07-28 23:45;5,15
2015-07-29 00:00;10,1
2015-07-29 00:15;1,8
2015-07-29 00:30;2,15
2015-07-29 00:45;1,2
2015-07-29 01:00;0
2015-07-29 01:15;0
2015-07-29 01:30;0
2015-07-29 01:45;0
2015-07-29 02:00;0
2015-07-29 02:15;0
2015-07-29 02:30;0
2015-07-29 02:45;0
2015-07-29 03:00;0
2015-07-29 03:15;0
2015-07-29 03:30;0
2015-07-29 03:45;0
2015-07-29 04:00;0
2015-07-29 04:15;0
2015-07-29 04:30;0,25
2015-07-29 04:45;0,85
2015-07-29 05:00;0,2
2015-07-29 05:15;1,45
2015-07-29 05:30;0
2015-07-29 05:45;0
2015-07-29 06:00;0,1
2015-07-29 06:15;0
2015-07-29 06:30;0,45
2015-07-29 06:45;0
2015-07-29 07:00;0
2015-07-29 07:15;0,45
2015-07-29 07:30;0,85
2015-07-29 07:45;29,35
2015-07-29 08:00;43,45
2015-07-29 08:15;22,75
2015-07-29 08:30;29,25
2015-07-29 08:45;32,6
2015-07-29 09:00;31,7
2015-07-29 09:15;26,05
2015-07-29 09:30;25,3
2015-07-29 09:45;29,4
2015-07-29 10:00;33,55
2015-07-29 10:15;31,6
2015-07-29 10:30;33,5
2015-07-29 10:45;41,1
2015-07-29 11:00;41,1
2015-07-29 11:15;48,45
2015-07-29 11:30;56,2
2015-07-29 11:45;58,55
2015-07-29 12:00;53,4
2015-07-29 12:15;52,6
2015-07-29 12:30;48,95
2015-07-29 12:45;58,8
2015-07-29 13:00;50,8
2015-07-29 13:15;56,35
2015-07-29 13:30;56,7
2015-07-29 13:45;56,45
2015-07-29 14:00;53,3
2015-07-29 14:15;54,6
2015-07-29 14:30;59,45
2015-07-29 14:45;61,3
2015-07-29 15:00;61,7
2015-07-29 15:15;58,3
2015-07-29 15:30;49,9
2015-07-29 15:45;44,8
2015-07-29 16:00;45,4
2015-07-29 16:15;47,6
2015-07-29 16:30;19,1
2015-07-29 16:45;14,35
2015-07-29 17:00;16,45
2015-07-29 17:15;14,1
2015-07-29 17:30;13,7
2015-07-29 17:45;13,8
2015-07-29 18:00;16,2
2015-07-29 18:15;12,3
2015-07-29 18:30;9,45
2015-07-29 18:45;7,15
2015-07-29 19:00;12,3
2015-07-29 19:15;5,95
2015-07-29 19:30;2,05
2015-07-29 19:45;1,3
2015-07-29 20:00;5,1
2015-07-29 20:15;2,05
2015-07-29 20:30;0,5
2015-07-29 20:45;0,05
2015-07-29 21:00;0
2015-07-29 21:15;0
2015-07-29 21:30;0
2015-07-29 21:45;0
2015-07-29 22:00;0
2015-07-29 22:15;0
2015-07-29 22:30;0
2015-07-29 22:45;0
2015-07-29 23:00;0
2015-07-29 23:15;0
2015-07-29 23:30;0
2015-07-29 23:45;1,1
2015-07-30 00:00;0,25
2015-07-30 00:15;0,05
2015-07-30 00:30;0
2015-07-30 00:45;0
2015-07-30 01:00;0
2015-07-30 01:15;0
2015-07-30 01:30;0
2015-07-30 01:45;0
2015-07-30 02:00;0
2015-07-30 02:15;0
2015-07-30 02:30;0
2015-07-30 02:45;0
2015-07-30 03:00;0
2015-07-30 03:15;0
2015-07-30 03:30;0
2015-07-30 03:45;0
2015-07-30 04:00;0
2015-07-30 04:15;0
2015-07-30 04:30;0
2015-07-30 04:45;0
2015-07-30 05:00;0
2015-07-30 05:15;0
2015-07-30 05:30;0
2015-07-30 05:45;0
2015-07-30 06:00;0
2015-07-30 06:15;0
2015-07-30 06:30;0
2015-07-30 06:45;0
2015-07-30 07:00;0
2015-07-30 07:15;0
2015-07-30 07:30;0
2015-07-30 07:45;11,65
2015-07-30 08:00;35,9
2015-07-30 08:15;25,65
2015-07-30 08:30;21,25
2015-07-30 08:45;22,75
2015-07-30 09:00;21,45
2015-07-30 09:15;29,8
2015-07-30 09:30;33,95
2015-07-30 09:45;30,15
2015-07-30 10:00;36,15
2015-07-30 10:15;41,55
2015-07-30 10:30;37,8
2015-07-30 10:45;41,45
2015-07-30 11:00;42,4
2015-07-30 11:15;47,85
2015-07-30 11:30;50,2
2015-07-30 11:45;49,75
2015-07-30 12:00;53,3
2015-07-30 12:15;55
2015-07-30 12:30;52,1
2015-07-30 12:45;51,9
2015-07-30 13:00;58,4
2015-07-30 13:15;51,2
2015-07-30 13:30;51,4
2015-07-30 13:45;53,65
2015-07-30 14:00;51,35
2015-07-30 14:15;53,7
2015-07-30 14:30;49,7
2015-07-30 14:45;52,1
2015-07-30 15:00;48,6
2015-07-30 15:15;43,8
2015-07-30 15:30;32,85
2015-07-30 15:45;35,25
2015-07-30 16:00;37,75
2015-07-30 16:15;29,35
2015-07-30 16:30;23,15
2015-07-30 16:45;22,55
2015-07-30 17:00;16,3
2015-07-30 17:15;16,35
2015-07-30 17:30;16,45
2015-07-30 17:45;13,75
2015-07-30 18:00;12,3
2015-07-30 18:15;11,3
2015-07-30 18:30;12,75
2015-07-30 18:45;5,9
2015-07-30 19:00;2
2015-07-30 19:15;3,6
2015-07-30 19:30;4,9
2015-07-30 19:45;2,45
2015-07-30 20:00;2,75
2015-07-30 20:15;1,3
2015-07-30 20:30;0,85
2015-07-30 20:45;0
2015-07-30 21:00;0
2015-07-30 21:15;0
2015-07-30 21:30;0
2015-07-30 21:45;0,3
2015-07-30 22:00;0
2015-07-30 22:15;0
2015-07-30 22:30;0
2015-07-30 22:45;1,15
2015-07-30 23:00;0,65
2015-07-30 23:15;0,3
2015-07-30 23:30;0,4
2015-07-30 23:45;1,7
2015-07-31 00:00;8,2
2015-07-31 00:15;0,4
2015-07-31 00:30;0,15
2015-07-31 00:45;0
2015-07-31 01:00;1,6
2015-07-31 01:15;0,2
2015-07-31 01:30;0
2015-07-31 01:45;0
2015-07-31 02:00;0
2015-07-31 02:15;0
2015-07-31 02:30;0
2015-07-31 02:45;0
2015-07-31 03:00;0
2015-07-31 03:15;0
2015-07-31 03:30;0
2015-07-31 03:45;0
2015-07-31 04:00;0
2015-07-31 04:15;0
2015-07-31 04:30;0,1
2015-07-31 04:45;0
2015-07-31 05:00;0
2015-07-31 05:15;0
2015-07-31 05:30;0
2015-07-31 05:45;0,35
2015-07-31 06:00;0,15
2015-07-31 06:15;0
2015-07-31 06:30;0
2015-07-31 06:45;0
2015-07-31 07:00;0,05
2015-07-31 07:15;0
2015-07-31 07:30;0
2015-07-31 07:45;20,9
2015-07-31 08:00;36,1
2015-07-31 08:15;22,75
2015-07-31 08:30;22,4
2015-07-31 08:45;20,3
2015-07-31 09:00;21
2015-07-31 09:15;25,1
2015-07-31 09:30;25,7
2015-07-31 09:45;32
2015-07-31 10:00;35,1
2015-07-31 10:15;40,4
2015-07-31 10:30;48,4
2015-07-31 10:45;42,2
2015-07-31 11:00;36,9
2015-07-31 11:15;46,85
2015-07-31 11:30;46,25
2015-07-31 11:45;42,2
2015-07-31 12:00;52,4
2015-07-31 12:15;56,45
2015-07-31 12:30;51,25
2015-07-31 12:45;48,3
2015-07-31 13:00;48,7
2015-07-31 13:15;49,65
2015-07-31 13:30;53,55
2015-07-31 13:45;54,5
2015-07-31 14:00;55,15
2015-07-31 14:15;47,45
2015-07-31 14:30;54,6
2015-07-31 14:45;47,75
2015-07-31 15:00;50,35
2015-07-31 15:15;45,15
2015-07-31 15:30;40,4
2015-07-31 15:45;38,35
2015-07-31 16:00;29,65
2015-07-31 16:15;28,25
2015-07-31 16:30;32,35
2015-07-31 16:45;25,9
2015-07-31 17:00;22,85
2015-07-31 17:15;21,25
2015-07-31 17:30;23,55
2015-07-31 17:45;20,2
2015-07-31 18:00;14
2015-07-31 18:15;9,65
2015-07-31 18:30;13,65
2015-07-31 18:45;7,3
2015-07-31 19:00;7,45
2015-07-31 19:15;4,9
2015-07-31 19:30;6,25
2015-07-31 19:45;0,8
2015-07-31 20:00;0,7
2015-07-31 20:15;1,4
2015-07-31 20:30;3,5
2015-07-31 20:45;0
2015-07-31 21:00;0
2015-07-31 21:15;0
2015-07-31 21:30;0
2015-07-31 21:45;0
2015-07-31 22:00;0,05
2015-07-31 22:15;0
2015-07-31 22:30;1,15
2015-07-31 22:45;0
2015-07-31 23:00;0
2015-07-31 23:15;0,4
2015-07-31 23:30;2,95
2015-07-31 23:45;1,4
2015-08-01 00:00;1,8
2015-08-01 00:15;0
2015-08-01 00:30;0
2015-08-01 00:45;0
2015-08-01 01:00;0
2015-08-01 01:15;0
2015-08-01 01:30;0
2015-08-01 01:45;0
2015-08-01 02:00;0
2015-08-01 02:15;0
2015-08-01 02:30;0
2015-08-01 02:45;0
2015-08-01 03:00;0
2015-08-01 03:15;0
2015-08-01 03:30;0
2015-08-01 03:45;0
2015-08-01 04:00;0
2015-08-01 04:15;0
2015-08-01 04:30;0
2015-08-01 04:45;0
2015-08-01 05:00;0
2015-08-01 05:15;0
2015-08-01 05:30;0
2015-08-01 05:45;0
2015-08-01 06:00;0
2015-08-01 06:15;0
2015-08-01 06:30;0
2015-08-01 06:45;0
2015-08-01 07:00;0
2015-08-01 07:15;0,1
2015-08-01 07:30;0
2015-08-01 07:45;5,2
2015-08-01 08:00;5,25
2015-08-01 08:15;5,45
2015-08-01 08:30;5,6
2015-08-01 08:45;0,45
2015-08-01 09:00;0,2
2015-08-01 09:15;0
2015-08-01 09:30;4
2015-08-01 09:45;0,35
2015-08-01 10:00;0,2
2015-08-01 10:15;0,15
2015-08-01 10:30;1,7
2015-08-01 10:45;0,6
2015-08-01 11:00;3,4
2015-08-01 11:15;6,9
2015-08-01 11:30;12,2
2015-08-01 11:45;7,1
2015-08-01 12:00;7,5
2015-08-01 12:15;9,05
2015-08-01 12:30;11,25
2015-08-01 12:45;5,25
2015-08-01 13:00;3,85
2015-08-01 13:15;5,5
2015-08-01 13:30;8,1
2015-08-01 13:45;6,8
2015-08-01 14:00;6,6
2015-08-01 14:15;3,9
2015-08-01 14:30;12,05
2015-08-01 14:45;6,35
2015-08-01 15:00;7,9
2015-08-01 15:15;9,4
2015-08-01 15:30;18,8
2015-08-01 15:45;12,7
2015-08-01 16:00;5,65
2015-08-01 16:15;7,25
2015-08-01 16:30;10
2015-08-01 16:45;5,85
2015-08-01 17:00;8
2015-08-01 17:15;9,65
2015-08-01 17:30;11,7
2015-08-01 17:45;7,4
2015-08-01 18:00;5,85
2015-08-01 18:15;5,55
2015-08-01 18:30;7,7
2015-08-01 18:45;3,45
2015-08-01 19:00;3,15
2015-08-01 19:15;3,8
2015-08-01 19:30;10
2015-08-01 19:45;2,6
2015-08-01 20:00;3,4
2015-08-01 20:15;2,5
2015-08-01 20:30;6,3
2015-08-01 20:45;1,6
2015-08-01 21:00;1,5
2015-08-01 21:15;0,1
2015-08-01 21:30;0
2015-08-01 21:45;2,55
2015-08-01 22:00;0
2015-08-01 22:15;0
2015-08-01 22:30;1,85
2015-08-01 22:45;5,05
2015-08-01 23:00;9,15
2015-08-01 23:15;8
2015-08-01 23:30;8,1
2015-08-01 23:45;5,45
2015-08-02 00:00;7,35
2015-08-02 00:15;0,8
2015-08-02 00:30;0
2015-08-02 00:45;0
2015-08-02 01:00;0
2015-08-02 01:15;0
2015-08-02 01:30;0
2015-08-02 01:45;0
2015-08-02 02:00;0
2015-08-02 02:15;0
2015-08-02 02:30;0
2015-08-02 02:45;0
2015-08-02 03:00;0
2015-08-02 03:15;0
2015-08-02 03:30;0
2015-08-02 03:45;0
2015-08-02 04:00;0
2015-08-02 04:15;0
2015-08-02 04:30;0
2015-08-02 04:45;0
2015-08-02 05:00;0
2015-08-02 05:15;0
2015-08-02 05:30;0
2015-08-02 05:45;0
2015-08-02 06:00;0
2015-08-02 06:15;0
2015-08-02 06:30;0
2015-08-02 06:45;0
2015-08-02 07:00;0
2015-08-02 07:15;0
2015-08-02 07:30;0
2015-08-02 07:45;0
2015-08-02 08:00;0
2015-08-02 08:15;0,1
2015-08-02 08:30;0
2015-08-02 08:45;0
2015-08-02 09:00;0
2015-08-02 09:15;0
2015-08-02 09:30;0
2015-08-02 09:45;0
2015-08-02 10:00;0
2015-08-02 10:15;0
2015-08-02 10:30;0
2015-08-02 10:45;0
2015-08-02 11:00;0
2015-08-02 11:15;0
2015-08-02 11:30;6,25
2015-08-02 11:45;1,7
2015-08-02 12:00;0,25
2015-08-02 12:15;0
2015-08-02 12:30;3,3
2015-08-02 12:45;2,4
2015-08-02 13:00;3,65
2015-08-02 13:15;6,6
2015-08-02 13:30;5,65
2015-08-02 13:45;3,7
2015-08-02 14:00;4,4
2015-08-02 14:15;3,7
2015-08-02 14:30;5,5
2015-08-02 14:45;5,25
2015-08-02 15:00;9,75
2015-08-02 15:15;12
2015-08-02 15:30;8,25
2015-08-02 15:45;6,85
2015-08-02 16:00;5,3
2015-08-02 16:15;7,25
2015-08-02 16:30;5,6
2015-08-02 16:45;6,35
2015-08-02 17:00;8,7
2015-08-02 17:15;8,8
2015-08-02 17:30;7,15
2015-08-02 17:45;5,7
2015-08-02 18:00;3,35
2015-08-02 18:15;3,55
2015-08-02 18:30;4,05
2015-08-02 18:45;0,95
2015-08-02 19:00;5,95
2015-08-02 19:15;9,2
2015-08-02 19:30;7,2
2015-08-02 19:45;2,2
2015-08-02 20:00;0,6
2015-08-02 20:15;1,25
2015-08-02 20:30;1,55
2015-08-02 20:45;0,6
2015-08-02 21:00;3,1
2015-08-02 21:15;0
2015-08-02 21:30;0,25
2015-08-02 21:45;0
2015-08-02 22:00;0,8
2015-08-02 22:15;2,35
2015-08-02 22:30;0
2015-08-02 22:45;2,6
2015-08-02 23:00;4,25
2015-08-02 23:15;3,8
2015-08-02 23:30;3,4
2015-08-02 23:45;6,7

